This is the latest recevied weather packets stored in our database for station/object WX6HNX-12. If no packets are shown the sender has not sent any weather packets the latest 10 day(s).
| Time | Temp. | Humidity | Pressure | Rain* | Wind** | Luminosity | Snow |
|---|---|---|---|---|---|---|---|
| 1777739538 | 23.89° C | 45% | 1012.2 hPa | 0 mm | - | - | - |
| 1777739236 | 23.89° C | 45% | 1012.2 hPa | 0 mm | - | - | - |
| 1777738937 | 23.89° C | 45% | 1012.2 hPa | 0 mm | - | - | - |
| 1777738339 | 23.33° C | 46% | 1012.2 hPa | 0 mm | - | - | - |
| 1777738037 | 23.33° C | 47% | 1012.2 hPa | 0 mm | - | - | - |
| 1777737620 | 23.33° C | 46% | 1012.1 hPa | 0 mm | - | - | - |
| 1777737320 | 23.33° C | 46% | 1012.1 hPa | 0 mm | - | - | - |
| 1777737020 | 23.33° C | 46% | 1012.2 hPa | 0 mm | - | - | - |
| 1777736720 | 23.33° C | 46% | 1012.1 hPa | 0 mm | - | - | - |
| 1777736420 | 23.89° C | 46% | 1012.1 hPa | 0 mm | - | - | - |
| 1777736121 | 23.89° C | 47% | 1012.1 hPa | 0 mm | - | - | - |
| 1777735821 | 23.89° C | 46% | 1012.1 hPa | 0 mm | - | - | - |
| 1777735520 | 23.89° C | 46% | 1012 hPa | 0 mm | - | - | - |
| 1777735224 | 23.89° C | 46% | 1012 hPa | 0 mm | - | - | - |
| 1777734920 | 23.89° C | 46% | 1012.1 hPa | 0 mm | - | - | - |
| 1777734620 | 23.89° C | 46% | 1011.9 hPa | 0 mm | - | - | - |
| 1777733632 | 22.78° C | 57% | 1011.8 hPa | 0 mm | - | - | - |
| 1777733331 | 22.22° C | 58% | 1011.8 hPa | 0 mm | - | - | - |
| 1777733031 | 21.11° C | 58% | 1011.8 hPa | 0 mm | - | - | - |
| 1777732733 | 20.56° C | 60% | 1011.7 hPa | 0 mm | - | - | - |
| 1777732432 | 19.44° C | 64% | 1011.8 hPa | 0 mm | - | - | - |
| 1777732132 | 18.33° C | 66% | 1011.8 hPa | 0 mm | - | - | - |
| 1777731831 | 17.78° C | 67% | 1011.8 hPa | 0 mm | - | - | - |
| 1777731531 | 16.67° C | 68% | 1011.8 hPa | 0 mm | - | - | - |
| 1777731246 | 16.11° C | 69% | 1011.8 hPa | 0 mm | - | - | - |
* Rain latest hour (hover to see other rain measurements)
** Current wind speed in m/s (hover to see current wind gust speed)